Location: Roc des P�zouls
(43.9667°N, 3.5500°E)
Time: 23:16:36
(UTC+00:00)

Cosmos 1937 Rocket - Pass Details

Date: 14 November 2019
Orbit: 747 x 780 km, 74.0° (Epoch: 14 December)

Event Time Altitude Azimuth Distance (km) Brightness Sun altitude
Rises 05:39:16 0° 216° (SW) 3,190 6.5 -10.9°
Reaches altitude 10° 05:41:43 10° 223° (SW) 2,266 5.7 -10.5°
Maximum altitude 05:46:39 46° 296° (WNW) 1,005 3.7 -9.6°
Drops below altitude 10° 05:51:35 10° 10° (N) 2,273 5.9 -8.8°
Sets 05:54:03 0° 16° (NNE) 3,201 6.7 -8.3°
